| time (UTC) | temp F | wind direction | speed MPH | gust MPH | rain 1hr in | rain 24hr in | rain mn in | humidity % | barometer mb |
| 20260504172524 | 53 | 0 | 8.0 | 15.0 | 0.00 | 0.00 | 0.00 | 37 | 976.5 |
| 20260504172021 | 52 | 0 | 7.0 | 15.0 | 0.00 | 0.00 | 0.00 | 37 | 976.5 |
| 20260504171523 | 52 | 18 | 5.0 | 15.0 | 0.00 | 0.00 | 0.00 | 39 | 976.5 |
| 20260504171020 | 52 | 0 | 10.0 | 15.0 | 0.00 | 0.00 | 0.00 | 38 | 976.6 |
| 20260504170522 | 52 | 358 | 9.0 | 15.0 | 0.00 | 0.00 | 0.00 | 39 | 976.5 |
| 20260504151017 | 50 | 30 | 4.0 | 12.0 | 0.00 | 0.00 | 0.00 | 44 | 976.2 |
| 20260504150519 | 50 | 21 | 7.0 | 12.0 | 0.00 | 0.00 | 0.00 | 44 | 976.2 |
| 20260504141015 | 49 | 235 | 2.0 | 4.0 | 0.00 | 0.00 | 0.00 | 71 | 975.7 |
| 20260504140519 | 49 | 235 | 2.0 | 3.0 | 0.00 | 0.00 | 0.00 | 72 | 975.8 |
| 20260504130520 | 47 | 235 | 0.0 | 1.0 | 0.00 | 0.00 | 0.00 | 72 | 975.6 |
| 20260504110512 | 48 | 319 | 0.0 | 0.0 | 0.00 | 0.00 | 0.00 | 71 | 975.6 |
| 20260504100511 | 49 | 18 | 0.0 | 3.0 | 0.00 | 0.00 | 0.00 | 66 | 975.7 |
| 20260504082007 | 51 | 1 | 4.0 | 11.0 | 0.00 | 0.00 | 0.00 | 54 | 975.7 |
| 20260504081508 | 52 | 340 | 5.0 | 11.0 | 0.00 | 0.00 | 0.00 | 53 | 975.7 |
| 20260504081007 | 52 | 75 | 5.0 | 13.0 | 0.00 | 0.00 | 0.00 | 53 | 975.6 |
| 20260504080508 | 52 | 30 | 6.0 | 13.0 | 0.00 | 0.00 | 0.00 | 52 | 975.7 |
| 20260504050503 | 56 | 56 | 4.0 | 7.0 | 0.00 | 0.00 | 0.00 | 40 | 973.1 |
| 20260504050002 | 56 | 66 | 4.0 | 10.0 | 0.00 | 0.00 | 0.00 | 40 | 973.0 |
| 20260504045504 | 56 | 66 | 5.0 | 10.0 | 0.00 | 0.00 | 0.00 | 40 | 972.9 |
| 20260504045001 | 56 | 62 | 2.0 | 10.0 | 0.00 | 0.00 | 0.00 | 41 | 972.9 |
| 20260504044510 | 56 | 71 | 4.0 | 9.0 | 0.00 | 0.00 | 0.00 | 40 | 972.5 |
| 20260504044504 | 56 | 68 | 4.0 | 10.0 | 0.00 | 0.00 | 0.00 | 40 | 972.5 |
| 20260504044125 | 56 | 80 | 4.0 | 12.0 | 0.00 | 0.00 | 0.00 | 39 | 972.4 |
| 20260504043000 | 56 | 61 | 6.0 | 12.0 | 0.00 | 0.00 | 0.00 | 39 | 972.3 |
| 20260504042502 | 56 | 71 | 4.0 | 10.0 | 0.00 | 0.00 | 0.00 | 39 | 972.0 |
| 20260504042002 | 56 | 51 | 4.0 | 15.0 | 0.00 | 0.00 | 0.00 | 39 | 972.1 |
| 20260504041502 | 57 | 86 | 6.0 | 17.0 | 0.00 | 0.00 | 0.00 | 38 | 972.0 |
| 20260504041001 | 57 | 28 | 7.0 | 17.0 | 0.00 | 0.00 | 0.00 | 38 | 971.9 |
| 20260504040509 | 58 | 65 | 5.0 | 14.0 | 0.00 | 0.00 | 0.00 | 38 | 971.6 |
| 20260504040501 | 57 | 42 | 8.0 | 17.0 | 0.00 | 0.00 | 0.00 | 37 | 971.7 |
| 20260504035502 | 58 | 58 | 4.0 | 15.0 | 0.00 | 0.00 | 0.00 | 38 | 971.4 |
| 20260504034959 | 58 | 61 | 6.0 | 15.0 | 0.00 | 0.00 | 0.00 | 36 | 971.4 |
| 20260504034501 | 59 | 58 | 5.0 | 14.0 | 0.00 | 0.00 | 0.00 | 36 | 971.3 |
| 20260504034127 | 60 | 59 | 6.0 | 20.0 | 0.00 | 0.00 | 0.00 | 34 | 970.8 |
| 20260504034008 | 60 | 45 | 6.0 | 18.0 | 0.00 | 0.00 | 0.00 | 35 | 971.0 |
| 20260504034001 | 59 | 61 | 6.0 | 12.0 | 0.00 | 0.00 | 0.00 | 36 | 971.1 |
| 20260504032500 | 61 | 39 | 9.0 | 20.0 | 0.00 | 0.00 | 0.00 | 33 | 970.4 |
| 20260504031958 | 61 | 16 | 9.0 | 18.0 | 0.00 | 0.00 | 0.00 | 32 | 970.2 |
| 20260504031501 | 62 | 62 | 10.0 | 23.0 | 0.00 | 0.00 | 0.00 | 32 | 970.0 |
| 20260504030957 | 63 | 0 | 6.0 | 29.0 | 0.00 | 0.00 | 0.00 | 31 | 969.6 |
| 20260504030459 | 64 | 0 | 16.0 | 29.0 | 0.00 | 0.00 | 0.00 | 30 | 969.2 |
| 20260504025959 | 65 | 61 | 5.0 | 11.0 | 0.00 | 0.00 | 0.00 | 30 | 968.9 |
| 20260504025501 | 65 | 51 | 5.0 | 10.0 | 0.00 | 0.00 | 0.00 | 29 | 968.9 |
| 20260504025006 | 66 | 48 | 5.0 | 10.0 | 0.00 | 0.00 | 0.00 | 29 | 968.6 |
| 20260504024959 | 65 | 59 | 6.0 | 10.0 | 0.00 | 0.00 | 0.00 | 29 | 968.8 |
| 20260504023957 | 66 | 13 | 4.0 | 11.0 | 0.00 | 0.00 | 0.00 | 29 | 968.5 |
| 20260504023500 | 67 | 82 | 6.0 | 12.0 | 0.00 | 0.00 | 0.00 | 28 | 968.5 |
| 20260504022958 | 67 | 47 | 5.0 | 12.0 | 0.00 | 0.00 | 0.00 | 28 | 968.3 |
| 20260504022459 | 67 | 39 | 5.0 | 14.0 | 0.00 | 0.00 | 0.00 | 28 | 968.2 |
| 20260504021956 | 67 | 0 | 6.0 | 16.0 | 0.00 | 0.00 | 0.00 | 28 | 968.1 |
| 20260504021500 | 67 | 78 | 7.0 | 16.0 | 0.00 | 0.00 | 0.00 | 28 | 967.9 |
| 20260504020957 | 68 | 63 | 5.0 | 14.0 | 0.00 | 0.00 | 0.00 | 28 | 967.8 |
| 20260504020500 | 68 | 68 | 6.0 | 17.0 | 0.00 | 0.00 | 0.00 | 28 | 967.6 |
| 20260504015957 | 68 | 52 | 5.0 | 17.0 | 0.00 | 0.00 | 0.00 | 28 | 967.6 |
| 20260504015459 | 68 | 80 | 9.0 | 17.0 | 0.00 | 0.00 | 0.00 | 27 | 967.5 |
| 20260504014957 | 69 | 48 | 8.0 | 24.0 | 0.00 | 0.00 | 0.00 | 27 | 967.5 |
| 20260504014458 | 69 | 56 | 8.0 | 24.0 | 0.00 | 0.00 | 0.00 | 26 | 967.5 |
| 20260504013957 | 70 | 71 | 6.0 | 18.0 | 0.00 | 0.00 | 0.00 | 27 | 967.4 |
| 20260504013505 | 71 | 59 | 7.0 | 19.0 | 0.00 | 0.00 | 0.00 | 26 | 967.1 |
| 20260504013457 | 70 | 51 | 10.0 | 19.0 | 0.00 | 0.00 | 0.00 | 26 | 967.1 |
| 20260504012504 | 72 | 54 | 8.0 | 21.0 | 0.00 | 0.00 | 0.00 | 25 | 967.0 |
| 20260504012457 | 71 | 55 | 7.0 | 21.0 | 0.00 | 0.00 | 0.00 | 25 | 967.0 |
| 20260504011457 | 73 | 75 | 8.0 | 17.0 | 0.00 | 0.00 | 0.00 | 25 | 966.8 |
| 20260504010956 | 75 | 58 | 10.0 | 17.0 | 0.00 | 0.00 | 0.00 | 23 | 966.7 |
| 20260504010457 | 76 | 17 | 6.0 | 11.0 | 0.00 | 0.00 | 0.00 | 21 | 966.6 |
| 20260504005954 | 77 | 28 | 1.0 | 7.0 | 0.00 | 0.00 | 0.00 | 17 | 966.4 |
| 20260504005457 | 77 | 63 | 3.0 | 11.0 | 0.00 | 0.00 | 0.00 | 17 | 966.5 |
| 20260504005002 | 77 | 55 | 3.0 | 10.0 | 0.00 | 0.00 | 0.00 | 17 | 966.4 |
| 20260504004955 | 77 | 6 | 7.0 | 11.0 | 0.00 | 0.00 | 0.00 | 17 | 966.4 |
| 20260504003954 | 77 | 0 | 4.0 | 10.0 | 0.00 | 0.00 | 0.00 | 17 | 966.5 |
| 20260504003504 | 78 | 357 | 4.0 | 7.0 | 0.00 | 0.00 | 0.00 | 16 | 966.6 |
| 20260504003457 | 78 | 52 | 2.0 | 7.0 | 0.00 | 0.00 | 0.00 | 18 | 966.5 |
| 20260504002503 | 78 | 4 | 6.0 | 11.0 | 0.00 | 0.00 | 0.00 | 16 | 966.6 |
| 20260504002456 | 78 | 0 | 4.0 | 9.0 | 0.00 | 0.00 | 0.00 | 17 | 966.5 |
| 20260504001504 | 78 | 358 | 0.0 | 2.0 | 0.00 | 0.00 | 0.00 | 15 | 966.5 |
| 20260504001457 | 78 | 0 | 7.0 | 11.0 | 0.00 | 0.00 | 0.00 | 16 | 966.6 |
| 20260504000455 | 78 | 358 | 1.0 | 4.0 | 0.00 | 0.00 | 0.00 | 16 | 966.6 |
| 20260503235955 | 79 | 358 | 0.0 | 4.0 | 0.00 | 0.00 | 0.00 | 15 | 966.6 |
| 20260503235455 | 79 | 354 | 2.0 | 5.0 | 0.00 | 0.00 | 0.00 | 16 | 966.7 |
| 20260503235001 | 79 | 354 | 3.0 | 7.0 | 0.00 | 0.00 | 0.00 | 15 | 966.7 |
| 20260503234954 | 79 | 354 | 3.0 | 7.0 | 0.00 | 0.00 | 0.00 | 15 | 966.7 |
| 20260503234621 | 80 | 7 | 3.0 | 6.0 | 0.00 | 0.00 | 0.00 | 15 | 966.6 |
| 20260503233454 | 80 | 10 | 2.0 | 5.0 | 0.00 | 0.00 | 0.00 | 15 | 966.8 |
| 20260503232953 | 80 | 8 | 0.0 | 4.0 | 0.00 | 0.00 | 0.00 | 14 | 966.8 |
| 20260503232455 | 79 | 8 | 2.0 | 7.0 | 0.00 | 0.00 | 0.00 | 14 | 966.8 |
| 20260503231953 | 79 | 8 | 4.0 | 7.0 | 0.00 | 0.00 | 0.00 | 16 | 966.9 |
| 20260503231454 | 79 | 20 | 2.0 | 6.0 | 0.00 | 0.00 | 0.00 | 15 | 966.9 |
| 20260503230953 | 79 | 20 | 4.0 | 7.0 | 0.00 | 0.00 | 0.00 | 15 | 966.9 |
| 20260503230455 | 79 | 0 | 5.0 | 10.0 | 0.00 | 0.00 | 0.00 | 15 | 967.0 |
| 20260503225953 | 79 | 317 | 3.0 | 10.0 | 0.00 | 0.00 | 0.00 | 15 | 967.1 |
| 20260503225453 | 78 | 345 | 5.0 | 10.0 | 0.00 | 0.00 | 0.00 | 17 | 967.2 |
| 20260503224953 | 79 | 17 | 0.0 | 4.0 | 0.00 | 0.00 | 0.00 | 16 | 967.1 |
| 20260503224454 | 79 | 49 | 1.0 | 7.0 | 0.00 | 0.00 | 0.00 | 16 | 967.2 |
| 20260503223951 | 79 | 51 | 4.0 | 11.0 | 0.00 | 0.00 | 0.00 | 16 | 967.4 |
| 20260503223453 | 79 | 347 | 5.0 | 11.0 | 0.00 | 0.00 | 0.00 | 16 | 967.3 |
| 20260503222952 | 79 | 24 | 6.0 | 11.0 | 0.00 | 0.00 | 0.00 | 16 | 967.4 |
| 20260503222453 | 79 | 3 | 4.0 | 10.0 | 0.00 | 0.00 | 0.00 | 16 | 967.5 |
| 20260503221952 | 79 | 333 | 2.0 | 9.0 | 0.00 | 0.00 | 0.00 | 16 | 967.6 |
| 20260503221453 | 80 | 334 | 4.0 | 9.0 | 0.00 | 0.00 | 0.00 | 16 | 967.7 |
| 20260503220951 | 79 | 0 | 5.0 | 10.0 | 0.00 | 0.00 | 0.00 | 17 | 967.8 |
| 20260503220452 | 79 | 350 | 6.0 | 10.0 | 0.00 | 0.00 | 0.00 | 16 | 967.8 |
| 20260503215950 | 80 | 262 | 2.0 | 15.0 | 0.00 | 0.00 | 0.00 | 17 | 967.7 |
| 20260503215453 | 79 | 296 | 3.0 | 15.0 | 0.00 | 0.00 | 0.00 | 16 | 967.9 |
| 20260503214952 | 80 | 310 | 8.0 | 13.0 | 0.00 | 0.00 | 0.00 | 16 | 967.9 |
| 20260503214452 | 80 | 312 | 6.0 | 12.0 | 0.00 | 0.00 | 0.00 | 16 | 968.0 |
| 20260503213950 | 80 | 7 | 6.0 | 12.0 | 0.00 | 0.00 | 0.00 | 16 | 968.1 |
| 20260503213452 | 80 | 329 | 6.0 | 12.0 | 0.00 | 0.00 | 0.00 | 16 | 968.1 |
| 20260503212951 | 80 | 296 | 3.0 | 10.0 | 0.00 | 0.00 | 0.00 | 18 | 968.1 |
| 20260503212451 | 79 | 8 | 3.0 | 10.0 | 0.00 | 0.00 | 0.00 | 17 | 968.2 |
| 20260503211951 | 79 | 0 | 5.0 | 11.0 | 0.00 | 0.00 | 0.00 | 17 | 968.2 |
| 20260503211451 | 79 | 0 | 7.0 | 12.0 | 0.00 | 0.00 | 0.00 | 16 | 968.3 |
| 20260503210949 | 78 | 343 | 6.0 | 14.0 | 0.00 | 0.00 | 0.00 | 16 | 968.5 |
| 20260503210451 | 78 | 337 | 8.0 | 14.0 | 0.00 | 0.00 | 0.00 | 16 | 968.5 |
| 20260503205949 | 78 | 329 | 6.0 | 13.0 | 0.00 | 0.00 | 0.00 | 16 | 968.5 |
| 20260503205459 | 78 | 312 | 5.0 | 13.0 | 0.00 | 0.00 | 0.00 | 16 | 968.8 |
| 20260503205452 | 78 | 337 | 7.0 | 13.0 | 0.00 | 0.00 | 0.00 | 16 | 968.6 |
| 20260503204459 | 79 | 18 | 5.0 | 11.0 | 0.00 | 0.00 | 0.00 | 16 | 968.9 |
| 20260503204452 | 79 | 326 | 8.0 | 13.0 | 0.00 | 0.00 | 0.00 | 17 | 968.8 |
| 20260503203459 | 78 | 0 | 4.0 | 12.0 | 0.00 | 0.00 | 0.00 | 17 | 968.8 |
| 20260503203451 | 79 | 337 | 4.0 | 11.0 | 0.00 | 0.00 | 0.00 | 16 | 968.9 |
| 20260503202450 | 78 | 312 | 5.0 | 12.0 | 0.00 | 0.00 | 0.00 | 17 | 968.9 |
| 20260503201949 | 78 | 42 | 1.0 | 13.0 | 0.00 | 0.00 | 0.00 | 17 | 969.0 |
| 20260503201449 | 78 | 355 | 8.0 | 13.0 | 0.00 | 0.00 | 0.00 | 17 | 969.0 |
| 20260503200948 | 78 | 18 | 4.0 | 10.0 | 0.00 | 0.00 | 0.00 | 17 | 969.0 |
| 20260503200449 | 78 | 344 | 6.0 | 10.0 | 0.00 | 0.00 | 0.00 | 18 | 969.1 |
| 20260503195957 | 78 | 327 | 6.0 | 14.0 | 0.00 | 0.00 | 0.00 | 17 | 969.2 |
| 20260503195949 | 78 | 338 | 6.0 | 11.0 | 0.00 | 0.00 | 0.00 | 18 | 969.1 |
| 20260503195613 | 78 | 309 | 8.0 | 14.0 | 0.00 | 0.00 | 0.00 | 18 | 969.3 |
| 20260503194449 | 77 | 319 | 6.0 | 11.0 | 0.00 | 0.00 | 0.00 | 18 | 969.4 |
| 20260503193947 | 76 | 271 | 3.0 | 7.0 | 0.00 | 0.00 | 0.00 | 20 | 969.5 |
| 20260503193449 | 77 | 178 | 4.0 | 7.0 | 0.00 | 0.00 | 0.00 | 16 | 969.5 |
| 20260503192947 | 76 | 283 | 4.0 | 7.0 | 0.00 | 0.00 | 0.00 | 17 | 969.7 |
| 20260503192451 | 76 | 220 | 4.0 | 6.0 | 0.00 | 0.00 | 0.00 | 18 | 969.8 |
| 20260503191952 | 73 | 159 | 1.0 | 9.0 | 0.00 | 0.00 | 0.00 | 22 | 969.9 |
| 20260503191947 | 74 | 159 | 1.0 | 3.0 | 0.00 | 0.00 | 0.00 | 19 | 969.8 |
| 20260503190946 | 73 | 159 | 3.0 | 9.0 | 0.00 | 0.00 | 0.00 | 18 | 970.0 |
| 20260503190448 | 74 | 175 | 0.0 | 3.0 | 0.00 | 0.00 | 0.00 | 19 | 970.1 |
| 20260503185954 | 77 | 250 | 1.0 | 9.0 | 0.00 | 0.00 | 0.00 | 18 | 970.3 |
| 20260503185947 | 74 | 192 | 1.0 | 9.0 | 0.00 | 0.00 | 0.00 | 21 | 970.2 |
| 20260503184947 | 76 | 266 | 1.0 | 9.0 | 0.00 | 0.00 | 0.00 | 17 | 970.6 |
| 20260503184448 | 76 | 269 | 3.0 | 9.0 | 0.00 | 0.00 | 0.00 | 18 | 970.7 |
| 20260503183945 | 76 | 310 | 2.0 | 11.0 | 0.00 | 0.00 | 0.00 | 19 | 970.8 |
| 20260503183454 | 76 | 202 | 4.0 | 13.0 | 0.00 | 0.00 | 0.00 | 20 | 970.8 |
| 20260503183447 | 76 | 327 | 6.0 | 11.0 | 0.00 | 0.00 | 0.00 | 19 | 970.8 |
| 20260503183112 | 75 | 204 | 5.0 | 13.0 | 0.00 | 0.00 | 0.00 | 22 | 970.7 |
| 20260503181953 | 75 | 196 | 7.0 | 10.0 | 0.00 | 0.00 | 0.00 | 20 | 970.8 |
| 20260503181946 | 74 | 185 | 0.0 | 10.0 | 0.00 | 0.00 | 0.00 | 20 | 970.8 |
| 20260503180946 | 75 | 320 | 4.0 | 7.0 | 0.00 | 0.00 | 0.00 | 20 | 970.9 |
| 20260503180448 | 74 | 320 | 4.0 | 7.0 | 0.00 | 0.00 | 0.00 | 20 | 971.0 |
| 20260503175946 | 74 | 298 | 4.0 | 5.0 | 0.00 | 0.00 | 0.00 | 20 | 971.0 |
| 20260503175446 | 74 | 286 | 2.0 | 5.0 | 0.00 | 0.00 | 0.00 | 20 | 971.0 |
| 20260503174945 | 72 | 282 | 2.0 | 4.0 | 0.00 | 0.00 | 0.00 | 24 | 971.0 |
| 20260503174444 | 74 | 217 | 2.0 | 7.0 | 0.00 | 0.00 | 0.00 | 19 | 971.0 |
| 20260503173952 | 74 | 235 | 4.0 | 7.0 | 0.00 | 0.00 | 0.00 | 22 | 971.1 |
| 20260503173944 | 74 | 238 | 1.0 | 7.0 | 0.00 | 0.00 | 0.00 | 19 | 971.0 |